Wetbulb
57.52 57.45 57.34 57.30 57.47 57.92 58.20 58.48 58.74 58.95 59.21 59.27 59.41 59.61 59.40 59.03 59.16 59.12 56.39 61.34 63.26 75.74 74.74 72.24 68.86 71.10 71.28 67.18 67.84 65.17 59.61 56.07 56.68 59.32 60.68 65.52 63.73 67.53 68.93 66.67 67.10 68.08 67.74 68.82 71.10
57.03 56.94 56.93 57.04 57.26 57.43 57.71 57.96 58.24 58.44 58.60 58.89 58.92 59.36 59.18 59.03 57.04 56.76 64.94 69.39 72.41 75.35 69.24 65.43 64.10 66.32 62.13 59.44 62.80 61.87 59.52 58.03 60.72 62.69 62.52 64.36 65.15 66.10 65.73 65.36 65.24 66.63 69.68 70.68 71.41
56.49 56.64 56.44 56.59 57.02 57.17 57.44 57.68 57.75 57.76 57.86 58.06 58.47 59.03 58.60 59.29 56.05 55.05 71.84 70.83 73.29 72.86 67.77 64.08 62.90 59.93 55.54 58.13 60.26 61.74 59.01 60.94 61.21 62.77 65.27 64.83 64.53 67.18 64.77 62.79 65.49 65.88 68.16 69.78 70.32
56.11 56.08 56.11 56.32 56.69 56.94 57.16 57.21 57.26 57.18 57.34 57.63 58.35 59.02 58.74 58.19 49.39 56.34 73.56 71.08 72.49 69.23 60.68 58.88 57.33 55.24 53.73 53.29 58.54 58.22 61.35 62.03 61.74 64.25 64.78 64.25 66.53 64.66 65.17 64.24 67.96 69.13 70.04 70.10 69.61
55.67 55.68 55.84 55.88 56.27 56.45 56.73 56.87 56.65 56.55 57.00 57.33 58.23 58.57 56.70 53.43 54.21 58.02 70.49 73.71 69.83 65.14 58.04 56.74 54.78 54.28 52.48 55.79 56.83 56.75 57.58 60.86 62.83 64.39 65.00 66.18 64.77 64.79 65.05 66.82 69.30 70.05 69.98 69.75 69.85
55.35 55.80 56.02 56.00 56.25 56.29 56.71 56.78 56.29 56.07 56.54 57.66 57.71 57.43 55.01 50.24 58.11 59.74 68.14 68.47 67.37 62.43 58.48 57.20 56.04 57.02 55.26 57.56 56.99 56.98 57.96 59.26 63.11 63.67 64.53 63.68 64.19 64.95 65.50 68.63 68.48 69.02 69.15 69.89 70.12
55.03 55.53 55.83 55.97 55.62 55.79 56.19 56.03 55.55 55.56 56.74 58.04 57.71 57.80 54.50 54.25 58.79 59.36 61.27 63.70 65.01 61.25 57.23 57.59 58.17 57.95 58.36 56.37 57.28 61.69 59.57 61.46 61.97 63.11 62.99 65.16 61.62 62.59 66.50 68.48 67.44 67.76 68.79 69.66 70.41
55.04 55.08 55.22 55.38 55.57 55.49 55.48 55.01 54.56 56.13 57.84 58.42 58.53 58.10 54.29 60.37 60.91 60.84 61.77 59.32 60.15 60.47 59.08 59.65 58.97 56.52 55.69 58.02 60.52 59.24 60.20 56.56 61.03 63.32 63.89 63.31 57.50 64.07 67.33 67.40 66.31 67.05 68.04 68.89 69.90
54.96 55.06 55.44 55.56 55.00 54.18 53.97 53.61 55.08 57.35 58.33 59.30 57.57 55.64 55.25 63.96 59.61 61.64 62.47 56.87 55.97 59.22 59.54 58.91 58.27 55.23 55.48 54.93 56.90 57.62 54.61 56.27 58.04 63.24 63.15 62.20 58.86 63.98 67.29 67.07 66.45 66.99 67.75 68.67 69.58
54.71 54.65 54.67 54.65 53.79 53.54 52.67 53.30 54.70 57.92 58.80 59.29 59.49 54.83 58.51 56.88 59.16 60.48 61.04 56.86 54.55 55.23 55.15 54.91 54.40 51.80 53.16 54.23 49.75 53.88 55.19 56.81 57.28 60.30 62.64 60.63 60.26 63.82 65.89 66.25 66.21 67.36 67.95 68.61 69.34
54.40 54.18 54.15 54.09 53.00 52.37 51.97 51.52 52.34 51.68 55.32 54.54 54.65 56.31 56.64 59.10 59.42 59.28 58.67 57.70 53.58 53.38 50.78 52.27 49.48 47.48 51.16 54.30 56.60 57.02 57.15 56.51 58.86 60.77 60.32 60.11 60.22 62.43 64.96 65.28 65.37 66.85 67.78 68.44 69.06
54.05 53.79 53.62 53.21 52.41 52.02 50.70 45.60 49.59 48.70 44.44 49.21 49.72 51.60 54.52 56.32 52.53 55.99 59.34 55.17 53.75 50.59 49.20 48.62 46.76 51.22 53.44 54.15 53.38 57.24 56.59 56.80 58.29 60.36 60.39 59.44 59.19 62.57 64.46 64.43 65.47 65.89 66.92 67.82 69.15
53.74 53.33 53.07 51.72 51.62 50.81 46.48 46.88 50.95 50.42 44.08 47.31 49.59 50.28 52.21 53.34 51.25 52.76 56.59 55.48 53.11 51.61 49.18 46.97 48.41 51.19 52.00 52.12 51.35 53.85 55.20 56.58 56.59 58.16 59.89 59.58 57.72 59.87 63.65 65.14 65.44 66.22 67.23 67.81 67.99
53.37 53.11 51.89 50.39 47.89 47.59 48.68 51.20 51.27 49.71 44.32 47.42 49.91 53.39 54.70 54.57 51.52 56.44 57.07 55.91 51.40 51.38 49.97 49.29 50.30 49.65 50.41 51.44 53.38 51.16 56.30 57.35 57.42 56.17 52.86 59.10 50.92 57.97 61.52 62.55 63.93 65.13 65.92 66.59 67.53
52.98 52.57 51.17 50.21 48.08 47.23 49.33 51.24 51.60 49.90 37.08 49.41 51.43 57.26 55.76 53.80 52.33 53.60 58.14 55.70 51.81 50.45 50.09 48.37 47.74 48.52 49.02 50.95 53.93 53.44 55.03 55.45 57.11 55.96 54.44 55.23 52.42 55.81 60.07 59.79 62.64 64.71 65.69 66.75 67.60
52.34 51.44 51.03 49.29 48.55 49.99 51.52 50.83 50.48 44.38 36.78 46.71 52.88 51.22 51.02 52.71 52.85 54.10 54.29 56.20 56.19 52.43 49.30 50.84 51.42 50.65 51.10 53.40 54.60 54.65 53.51 53.07 54.25 54.13 47.99 52.64 53.12 52.38 57.23 59.79 62.21 64.74 65.77 66.58 67.39
50.84 50.08 50.05 49.82 46.91 50.45 50.75 48.67 42.45 38.39 47.32 45.63 47.96 49.68 49.26 48.91 50.74 51.32 50.80 50.49 49.83 47.38 47.68 50.18 49.82 51.05 51.52 50.46 54.60 53.76 51.82 46.52 45.48 45.88 45.68 52.68 52.61 54.20 58.97 61.83 63.04 63.79 64.96 66.45 67.60
49.40 49.15 50.03 50.47 51.48 51.81 48.56 43.77 36.26 42.64 44.46 48.14 48.42 48.23 46.23 48.20 49.42 49.68 49.87 48.28 52.67 51.93 48.88 46.12 43.93 50.00 52.13 50.72 50.49 51.59 51.69 47.96 42.70 43.81 46.68 51.06 49.10 53.76 60.66 61.99 63.58 65.27 66.11 66.77 66.99
49.40 48.53 46.89 49.69 51.36 50.44 44.64 36.49 39.43 42.98 47.99 47.81 48.14 45.70 45.93 47.51 47.78 48.70 48.92 48.99 51.05 52.27 47.59 45.99 46.08 50.54 51.39 53.29 53.71 51.12 49.03 53.86 50.02 47.32 46.97 50.17 53.75 56.10 59.15 59.93 61.31 62.91 64.88 65.88 66.85
46.52 44.38 44.53 52.21 52.71 47.74 41.71 37.55 40.93 47.02 48.97 46.33 43.70 46.36 43.85 45.44 45.72 46.80 47.61 50.62 50.84 52.80 54.87 49.71 45.14 49.57 50.92 52.41 53.50 52.55 53.93 47.87 48.73 44.58 42.64 47.16 48.88 50.18 56.98 58.89 61.59 61.79 63.58 65.68 67.56
44.54 39.38 47.30 52.95 48.96 44.63 38.49 38.88 41.72 45.45 48.12 44.99 44.44 44.81 46.10 44.12 45.71 45.59 46.52 49.61 50.56 51.22 53.95 52.41 48.50 46.79 49.61 48.77 48.44 49.72 49.36 50.30 51.26 49.48 45.93 44.30 47.74 57.10 59.51 62.30 61.62 62.44 63.96 65.54 67.04
42.56 35.26 46.97 50.68 44.04 42.90 40.05 40.91 42.92 44.70 46.21 45.15 46.48 46.57 45.29 45.39 44.57 45.03 45.48 49.32 51.64 51.31 48.43 51.91 49.95 45.95 47.09 50.72 51.87 51.87 51.00 51.81 47.84 47.41 48.23 48.41 48.46 57.37 58.80 60.54 62.00 62.60 63.74 65.40 67.62
38.45 39.01 47.71 47.85 38.68 41.11 43.14 42.88 45.27 45.86 46.89 47.00 45.31 47.36 47.81 45.32 43.26 46.37 47.75 51.21 51.81 51.32 51.79 50.22 47.99 44.28 45.80 49.47 50.77 49.28 50.70 52.22 52.40 52.21 50.34 46.00 48.24 58.01 57.86 58.54 60.37 61.80 64.14 64.72 66.26
39.72 34.58 42.92 45.27 42.49 40.82 39.95 41.08 41.64 46.92 47.02 48.83 47.83 49.34 48.25 46.97 49.04 47.11 47.34 51.38 54.07 52.97 58.60 55.94 51.33 48.74 44.41 47.00 49.45 47.33 49.12 51.04 50.80 47.98 48.58 48.87 50.81 55.53 57.77 58.74 60.80 62.08 64.18 64.47 64.92
40.55 37.98 41.44 39.01 41.66 41.63 40.13 39.86 39.59 40.36 46.15 47.11 47.49 47.71 47.29 45.06 46.40 46.27 48.53 49.47 51.31 56.17 56.15 54.58 48.99 50.67 51.48 51.53 50.04 48.67 48.02 49.64 49.44 51.66 49.28 50.65 51.62 55.68 59.97 61.66 62.52 64.05 65.07 63.38 64.08
38.39 39.50 40.42 39.02 40.49 40.07 39.56 39.45 39.81 41.55 42.50 43.59 44.29 46.46 47.68 45.61 47.30 46.25 49.50 50.31 50.91 54.93 55.30 50.86 50.29 47.98 47.46 50.74 50.04 47.68 49.09 50.03 50.75 51.05 51.49 52.31 52.67 57.96 60.63 62.08 61.92 62.34 64.01 63.20 63.62
43.15 42.96 39.31 37.33 38.23 37.74 38.84 39.62 40.32 41.74 44.27 45.44 44.40 43.08 43.03 46.24 48.56 50.05 51.65 52.43 53.61 52.78 54.51 54.96 51.64 50.31 46.54 48.58 47.77 45.88 49.29 49.93 51.49 53.03 52.76 50.54 55.22 59.40 57.58 59.02 61.46 63.03 64.01 64.59 65.03
MSLP
1018.26 1017.84 1017.42 1017.00 1016.54 1016.16 1015.71 1015.25 1014.76 1014.18 1013.74 1013.22 1012.68 1012.21 1011.79 1011.37 1010.49 1010.30 1008.67 1006.37 1006.33 1006.69 1007.00 1007.40 1007.40 1007.48 1007.58 1007.22 1007.02 1006.76 1006.17 1005.91 1006.07 1006.31 1006.72 1007.93 1008.60 1009.76 1010.17 1010.75 1011.27 1011.69 1011.99 1012.40 1013.72
1018.31 1017.86 1017.45 1016.95 1016.40 1015.90 1015.52 1015.12 1014.74 1014.13 1013.67 1013.25 1012.81 1012.38 1011.94 1011.58 1010.68 1008.42 1005.70 1005.50 1005.80 1006.09 1006.54 1006.53 1006.81 1007.07 1006.78 1006.57 1006.40 1005.93 1005.51 1005.08 1005.31 1005.57 1006.12 1007.33 1008.09 1009.22 1010.07 1010.47 1010.95 1011.63 1012.24 1012.95 1013.90
1018.35 1017.85 1017.39 1016.94 1016.36 1015.79 1015.24 1014.77 1014.51 1014.16 1013.50 1013.09 1012.64 1012.28 1011.92 1011.54 1010.05 1006.35 1005.24 1005.33 1006.01 1005.77 1005.72 1005.99 1006.27 1006.43 1006.30 1006.03 1005.63 1005.32 1004.62 1004.78 1004.84 1005.38 1005.90 1006.90 1008.01 1008.84 1009.53 1010.04 1010.31 1011.10 1012.12 1012.98 1013.66
1018.31 1017.87 1017.29 1016.75 1016.20 1015.60 1015.08 1014.58 1014.01 1013.86 1013.39 1012.86 1012.43 1012.11 1011.78 1011.25 1008.46 1005.39 1005.27 1005.50 1005.74 1006.21 1005.93 1005.94 1006.00 1005.95 1005.46 1005.11 1004.87 1004.85 1004.40 1004.51 1004.69 1005.27 1005.58 1006.41 1007.42 1008.38 1009.01 1009.21 1009.82 1010.95 1011.76 1012.80 1013.40
1018.36 1017.80 1017.23 1016.64 1015.99 1015.35 1014.75 1014.33 1013.84 1013.29 1013.04 1012.56 1012.20 1011.99 1011.58 1009.99 1006.64 1004.98 1005.02 1005.25 1005.66 1005.87 1005.38 1005.20 1005.12 1004.99 1004.54 1004.38 1004.44 1004.38 1003.97 1004.18 1004.21 1004.82 1005.40 1006.24 1007.00 1007.94 1008.65 1009.24 1009.81 1010.73 1011.91 1012.47 1013.22
1018.35 1017.73 1017.12 1016.47 1015.73 1014.96 1014.34 1013.89 1013.47 1013.00 1012.55 1012.17 1011.94 1012.03 1011.10 1008.13 1004.86 1005.00 1005.14 1005.37 1005.50 1005.56 1005.23 1005.08 1004.33 1004.30 1004.08 1003.83 1003.82 1003.73 1003.84 1003.91 1004.18 1004.92 1005.73 1006.27 1007.36 1008.01 1008.45 1009.42 1010.05 1010.75 1011.59 1012.35 1012.92
1018.31 1017.69 1016.96 1016.27 1015.54 1014.68 1013.85 1013.31 1012.96 1012.50 1011.98 1011.68 1011.67 1011.72 1010.23 1005.70 1004.52 1004.75 1004.82 1004.69 1004.86 1004.94 1004.47 1004.54 1004.26 1004.03 1003.67 1003.47 1003.48 1003.61 1003.80 1004.23 1004.72 1005.10 1005.71 1006.46 1007.50 1007.45 1008.37 1009.41 1010.12 1010.71 1011.53 1012.22 1012.66
1018.00 1017.42 1016.78 1016.09 1015.34 1014.45 1013.42 1012.82 1012.24 1011.77 1011.27 1011.22 1011.55 1011.25 1007.96 1004.44 1004.38 1004.42 1004.29 1004.34 1004.57 1004.60 1004.37 1004.19 1004.24 1003.89 1003.69 1003.51 1003.38 1003.42 1003.64 1004.02 1004.86 1005.15 1005.73 1005.83 1005.76 1007.12 1008.32 1008.98 1009.74 1010.52 1011.19 1011.87 1012.31
1017.86 1017.18 1016.39 1015.63 1014.98 1014.27 1013.13 1012.25 1011.59 1011.10 1011.04 1011.17 1011.28 1010.49 1006.30 1004.03 1003.92 1003.43 1003.64 1003.47 1004.12 1004.40 1004.39 1004.13 1004.16 1003.77 1003.55 1003.06 1002.99 1003.31 1002.94 1003.64 1004.44 1004.76 1005.28 1005.79 1005.75 1006.76 1007.91 1008.61 1009.35 1010.08 1010.54 1011.17 1011.88
1017.77 1017.15 1016.39 1015.50 1014.71 1013.81 1012.66 1011.56 1011.28 1011.08 1011.16 1011.09 1010.60 1009.71 1005.30 1003.60 1003.06 1003.13 1003.40 1003.41 1003.39 1003.99 1004.27 1004.12 1003.79 1003.30 1003.10 1002.44 1001.67 1002.23 1002.73 1003.16 1003.32 1004.56 1005.12 1005.66 1006.01 1006.89 1007.92 1008.36 1008.82 1009.56 1010.12 1010.61 1011.04
1017.49 1016.83 1016.16 1015.15 1014.53 1013.74 1012.62 1011.29 1011.18 1010.78 1010.07 1008.30 1007.31 1005.99 1004.20 1003.20 1003.01 1002.76 1003.05 1003.10 1003.08 1003.47 1003.40 1003.65 1003.24 1002.06 1002.09 1001.99 1001.69 1001.75 1002.12 1002.27 1003.20 1003.88 1004.74 1005.31 1005.92 1006.81 1007.72 1008.34 1008.46 1008.91 1009.56 1009.93 1010.07
1017.31 1016.50 1015.81 1014.70 1014.06 1013.46 1013.02 1012.07 1011.31 1011.27 1009.20 1006.39 1005.33 1004.62 1003.60 1003.62 1002.77 1001.98 1002.46 1002.71 1002.71 1002.68 1003.20 1003.52 1002.45 1002.52 1002.18 1001.88 1001.77 1001.83 1001.78 1002.01 1003.13 1003.80 1004.21 1005.18 1005.45 1006.23 1006.92 1007.41 1007.92 1008.30 1008.77 1009.12 1009.62
1017.15 1016.42 1015.73 1014.53 1013.58 1013.06 1012.90 1011.86 1011.57 1011.08 1009.57 1004.91 1004.15 1003.32 1002.57 1002.99 1002.08 1000.77 1001.37 1001.56 1001.94 1002.26 1002.53 1002.43 1002.22 1002.46 1002.27 1001.80 1001.54 1001.49 1001.40 1001.72 1002.28 1003.61 1004.18 1004.59 1004.73 1005.35 1006.05 1006.87 1007.54 1007.82 1007.96 1008.26 1008.63
1017.02 1016.35 1015.72 1014.73 1013.47 1013.28 1011.94 1011.46 1011.39 1011.05 1008.92 1004.68 1003.11 1001.75 1002.06 1002.08 1001.29 1000.12 1000.25 1000.71 1001.53 1001.62 1002.37 1002.31 1002.21 1002.00 1001.82 1001.30 1001.07 1000.74 1001.02 1001.53 1002.35 1002.98 1003.20 1004.20 1003.42 1004.05 1004.75 1005.59 1006.08 1006.52 1006.98 1007.28 1007.78
1016.87 1016.02 1015.88 1015.74 1014.56 1013.21 1011.55 1011.35 1011.21 1010.85 1007.67 1003.12 1001.75 1000.99 1001.23 1001.28 1000.30 1000.09 999.99 1000.26 1000.53 1001.17 1001.90 1001.49 1001.56 1001.65 1001.11 1000.75 1001.08 1000.66 1001.11 1001.60 1001.90 1002.43 1003.42 1003.92 1004.01 1002.73 1003.99 1004.19 1004.09 1004.36 1005.24 1005.94 1006.48
1016.27 1015.51 1015.66 1015.02 1014.51 1012.16 1011.52 1011.38 1010.63 1009.55 1005.64 1002.19 1001.02 1000.63 1000.91 1000.46 999.99 999.99 1000.07 1000.02 1000.30 1000.81 1001.33 1001.16 1001.34 1000.85 1000.52 1000.64 1000.76 1001.12 1001.51 1002.31 1002.75 1002.67 1002.79 1002.67 1002.94 1001.68 1002.31 1001.81 1001.58 1002.62 1003.62 1004.39 1005.25
1015.47 1014.72 1014.65 1014.69 1012.44 1011.53 1011.30 1010.68 1009.39 1006.97 1004.00 1001.80 1000.69 1000.41 1000.33 999.86 999.65 999.35 999.38 999.49 999.47 1000.06 1000.38 1000.82 1000.49 1000.48 1000.08 1000.13 1000.38 1000.69 1000.87 1001.65 1002.22 1002.43 1001.75 1002.20 1002.26 1000.48 1000.16 1000.16 1000.08 1000.63 1001.84 1002.81 1003.97
1014.63 1013.53 1012.59 1012.06 1011.76 1011.79 1011.08 1009.76 1007.19 1004.04 1002.45 1001.48 1000.77 1000.36 1000.06 999.73 999.21 999.06 998.84 998.66 998.83 998.97 999.35 999.91 999.89 999.63 999.42 998.87 999.12 999.78 999.83 999.72 1000.39 1000.99 1001.43 1002.18 1000.81 999.18 999.13 999.01 999.58 1000.05 1000.63 1002.11 1002.84
1013.99 1012.68 1011.89 1010.91 1011.22 1011.50 1010.31 1007.73 1004.32 1003.30 1001.81 1001.08 1000.54 1000.06 999.58 999.55 999.42 998.82 998.49 997.90 997.93 998.31 998.68 999.16 998.96 999.04 998.80 998.73 998.61 999.16 999.13 999.42 999.90 1001.19 1000.74 1000.10 1000.03 999.44 998.67 998.43 998.62 998.92 999.87 1000.42 1001.24
1014.58 1012.95 1011.24 1010.17 1010.52 1010.71 1009.12 1005.65 1003.77 1002.40 1001.39 1000.79 1000.38 1000.18 999.67 999.57 999.27 998.68 998.32 997.57 997.47 997.75 998.00 998.60 998.54 998.08 997.83 998.28 998.03 997.86 998.44 999.41 999.45 999.21 999.43 999.41 999.20 998.15 997.77 997.48 997.48 998.32 998.55 998.93 999.84
1014.94 1012.81 1010.21 1010.04 1010.45 1009.38 1007.41 1005.05 1003.29 1002.04 1001.41 1000.89 1000.36 1000.12 999.91 999.70 999.52 998.95 998.02 997.46 996.98 996.94 997.42 997.72 998.10 997.70 997.71 996.66 996.67 997.55 997.68 998.09 998.15 998.42 998.02 998.22 997.37 997.65 997.18 996.74 996.64 996.95 997.36 997.78 998.86
1015.15 1012.87 1010.16 1010.06 1009.78 1008.07 1006.27 1004.85 1003.26 1001.78 1001.15 1000.90 1000.55 1000.22 1000.00 999.89 999.43 999.12 998.32 997.38 996.85 996.60 997.02 997.44 997.58 997.19 996.61 996.56 996.45 996.14 996.34 996.82 996.92 997.84 998.15 997.45 996.46 996.42 996.42 996.15 996.20 996.29 996.77 997.63 998.34
1015.34 1012.98 1010.15 1009.93 1008.78 1007.23 1006.15 1004.93 1003.56 1002.11 1001.26 1000.63 1000.20 1000.02 1000.03 999.86 999.89 999.05 998.30 997.29 997.23 996.73 996.38 997.28 997.24 996.89 996.49 996.45 996.35 995.89 995.74 995.94 996.38 996.58 996.22 996.56 995.83 996.23 996.24 996.46 996.46 996.60 996.63 997.48 998.20
1015.72 1013.52 1010.42 1009.82 1009.17 1007.91 1006.84 1005.31 1003.92 1002.60 1001.68 1000.93 1000.45 1000.16 1000.13 999.85 999.93 999.36 998.53 997.51 997.15 996.95 996.79 996.64 996.57 996.10 995.41 995.29 995.52 995.48 995.47 995.42 995.68 995.35 995.66 995.30 995.62 995.69 995.71 996.05 995.89 996.19 996.43 997.12 997.96
1015.60 1014.04 1013.02 1010.73 1009.52 1008.86 1007.98 1006.27 1004.77 1003.42 1002.17 1001.62 1000.83 1000.44 1000.27 999.98 999.85 999.42 999.17 998.14 997.37 997.24 997.43 996.32 996.26 995.79 994.82 994.44 994.62 994.68 994.60 994.75 994.76 994.58 994.50 994.63 994.81 994.60 994.90 995.07 995.22 995.27 996.27 997.15 997.75
1015.45 1014.51 1013.71 1012.37 1010.96 1009.47 1008.12 1006.62 1005.49 1004.56 1003.69 1002.21 1001.59 1000.99 1000.63 1000.40 1000.27 999.83 999.05 998.24 997.58 997.30 997.10 996.79 996.16 995.98 994.92 994.27 993.87 993.48 993.82 993.89 993.92 994.05 994.26 994.08 993.86 994.02 994.08 994.75 995.00 995.22 995.97 996.63 997.12
1015.45 1015.09 1014.63 1012.37 1011.01 1009.81 1008.38 1007.33 1006.17 1005.72 1004.28 1003.52 1002.97 1002.36 1001.38 1000.94 1000.71 1000.42 999.70 998.91 998.28 997.96 997.58 996.72 996.65 996.57 995.05 994.26 994.13 993.17 992.79 993.22 993.60 993.66 993.49 993.30 993.21 993.33 993.62 994.27 994.45 994.78 995.20 995.85 996.25
Wind_Speed
20 20 20 19 20 20 19 19 19 20 19 20 20 19 19 19 17 4 8 11 10 16 13 10 5 8 4 4 4 3 2 5 7 10 8 13 9 6 6 13 6 8 7 12 21
21 21 21 21 20 20 19 19 19 20 20 19 18 17 16 16 6 11 10 11 11 20 12 14 9 9 3 2 4 5 3 5 6 9 10 15 12 13 6 12 7 5 10 20 21
22 22 21 21 21 21 21 20 19 19 20 19 18 15 14 11 6 4 7 8 9 13 10 10 8 7 4 4 6 4 8 4 4 9 15 16 12 11 8 13 11 15 19 24 23
23 23 23 22 21 21 20 20 21 19 18 18 16 14 12 4 8 3 6 11 15 13 12 9 9 8 7 8 7 8 8 8 6 11 17 18 15 11 13 5 11 15 22 23 23
23 23 23 23 23 22 21 20 20 21 18 17 15 10 6 3 13 0 3 6 11 14 16 13 15 8 9 7 7 9 9 9 10 15 15 17 17 11 13 4 9 19 23 24 21
23 22 23 23 24 24 23 21 21 20 19 16 10 5 4 10 2 5 7 10 8 16 18 14 12 9 9 6 11 5 6 5 11 13 13 15 9 9 8 8 14 21 24 22 21
23 22 22 23 24 26 25 23 23 20 19 11 5 4 4 19 6 2 2 4 11 15 17 14 6 10 5 5 4 6 5 8 9 16 8 16 8 14 9 13 15 19 20 19 20
24 25 25 25 25 26 26 25 25 21 10 3 8 3 10 2 1 6 6 5 6 8 11 11 3 1 4 2 4 4 5 6 9 15 10 15 13 13 14 17 17 20 19 18 19
22 24 26 26 26 26 27 28 21 2 4 9 5 3 10 3 4 1 7 6 7 6 4 3 5 4 5 6 6 4 7 9 10 12 9 14 6 10 17 17 17 19 19 18 17
22 21 23 25 28 26 29 22 4 3 4 4 4 4 7 2 2 1 4 8 5 9 7 5 4 9 5 10 14 12 9 8 10 12 9 13 8 8 14 17 18 18 17 18 19
24 24 23 24 25 25 17 2 3 3 5 7 5 8 8 5 7 2 5 7 6 5 9 5 9 16 18 15 10 14 14 14 9 11 12 13 12 6 13 15 17 17 17 18 21
23 24 25 27 24 24 4 5 5 2 12 14 22 21 20 8 9 15 7 5 8 10 7 5 15 12 14 14 9 13 17 16 7 11 12 9 14 9 15 19 18 18 18 19 18
24 23 23 29 29 1 6 2 5 3 5 10 6 7 4 13 11 17 15 10 7 11 11 13 5 10 11 12 13 12 17 15 15 9 3 6 13 10 11 17 17 18 18 19 19
23 23 23 29 2 6 4 4 7 3 5 7 4 5 6 6 7 13 18 9 5 15 10 9 9 14 13 16 15 19 15 15 15 12 13 11 12 11 15 17 20 21 21 20 20
24 24 20 14 9 5 2 5 6 3 7 2 3 2 4 7 6 8 11 10 13 9 8 8 11 14 18 18 14 11 9 16 15 15 8 9 7 10 8 16 23 25 24 23 22
24 25 19 2 5 10 10 8 3 4 10 3 3 4 3 6 3 5 10 5 8 11 5 14 3 15 14 14 17 10 10 6 5 8 11 15 14 10 9 16 24 22 24 25 23
26 26 16 6 5 4 4 4 5 8 2 4 3 2 7 3 5 8 15 15 12 16 16 13 16 7 10 16 15 15 12 6 8 8 9 7 12 17 11 18 23 19 26 26 24
30 29 4 8 7 9 3 4 11 6 13 0 3 4 4 2 4 10 12 18 18 15 12 14 15 20 15 16 14 21 21 12 15 10 12 5 12 8 16 17 15 15 16 21 24
29 4 4 3 11 4 4 11 9 9 4 3 2 5 5 2 5 7 11 18 20 19 15 13 17 6 13 8 18 11 15 17 18 1 7 6 6 10 13 14 11 17 15 22 25
9 6 5 4 10 6 6 13 9 7 3 3 6 4 3 1 4 2 7 7 12 19 19 12 8 20 12 16 15 13 13 12 8 20 18 9 6 8 6 12 12 12 19 22 23
4 6 3 2 4 4 8 9 12 12 7 9 10 8 4 2 4 4 3 2 6 16 21 17 14 7 12 20 24 11 11 4 6 8 15 15 13 8 14 14 13 15 19 20 22
5 5 3 2 4 3 6 5 2 6 10 15 6 7 9 7 8 6 8 8 4 11 12 14 11 14 20 2 13 21 21 20 14 12 5 9 12 4 15 16 12 14 11 13 19
7 6 3 3 6 6 3 5 5 7 7 7 14 13 8 6 7 10 9 9 11 2 10 9 7 12 15 18 14 11 20 22 17 14 17 15 12 3 6 12 13 13 9 9 15
4 6 3 1 2 2 4 5 5 4 7 6 6 7 5 7 8 6 4 4 3 6 6 10 8 11 15 18 16 14 12 19 20 17 15 15 17 10 10 13 15 14 13 10 14
3 3 3 5 1 8 4 4 8 5 3 3 5 11 10 9 14 16 15 17 16 11 4 7 6 16 23 25 24 22 21 17 20 24 19 17 18 17 16 16 18 16 9 10 13
4 3 4 7 10 8 4 3 4 4 3 8 6 10 7 6 11 13 12 14 11 2 5 3 2 2 16 22 24 26 24 18 22 23 19 11 12 13 10 9 9 15 13 14 16
2 2 3 6 5 4 4 4 2 7 7 12 10 9 10 10 4 12 13 14 8 4 5 5 2 7 8 9 15 22 24 20 14 14 16 15 10 7 7 11 16 15 14 17 17
Wind_Direction
356 354 353 351 347 344 341 337 333 330 328 327 328 330 333 332 320 157 252 214 186 170 132 141 118 132 164 172 198 191 201 201 183 177 148 155 156 157 132 145 182 178 154 149 156
353 351 349 346 344 340 337 333 332 328 326 324 323 324 329 333 305 270 260 224 156 158 142 164 162 156 166 204 183 219 241 206 194 182 165 166 167 150 165 168 183 141 129 141 157
349 347 345 342 339 336 332 329 329 327 324 321 319 320 323 324 285 250 348 155 165 184 166 166 149 166 207 191 186 177 244 206 203 177 156 159 164 161 157 188 192 173 156 157 164
346 344 341 338 335 331 327 326 324 326 321 316 314 315 315 273 292 156 117 158 178 196 149 172 158 179 210 203 196 226 242 218 159 172 162 169 156 180 183 186 183 170 164 163 171
344 341 338 335 332 328 324 322 320 320 317 312 309 313 294 219 249 175 69 165 180 188 198 181 180 181 200 201 198 227 252 211 187 175 179 156 173 174 207 205 175 156 167 171 177
342 338 336 333 330 326 322 320 318 316 312 306 296 291 246 264 163 113 102 133 162 188 194 193 201 193 215 217 200 174 242 228 190 163 161 166 163 174 188 148 155 163 172 176 181
339 337 333 332 329 323 320 317 317 313 307 293 238 216 242 252 133 250 272 204 168 192 181 194 212 195 180 187 189 139 113 103 144 161 152 141 157 213 168 163 162 169 176 180 187
337 335 333 331 328 323 316 316 315 308 293 209 170 189 251 228 204 266 201 195 167 203 207 183 200 175 217 140 105 139 149 170 172 173 154 186 218 197 172 170 174 176 180 186 193
336 334 331 329 327 323 314 316 315 330 120 149 159 223 261 292 256 113 178 169 140 202 234 166 182 222 174 185 153 184 199 206 174 198 157 202 222 190 177 185 182 184 185 188 191
335 333 330 327 328 323 320 310 261 117 141 186 249 253 241 230 129 280 173 169 144 143 143 177 167 193 174 195 202 191 204 209 180 177 193 202 217 163 186 191 193 193 193 194 197
333 333 330 326 328 324 331 323 235 173 203 236 256 262 272 261 278 200 146 161 135 156 181 188 202 201 190 195 203 207 213 202 174 165 185 221 247 220 192 208 202 203 200 201 207
331 332 331 326 325 322 284 328 74 12 299 246 250 256 258 283 271 226 176 203 189 185 143 179 221 203 197 200 181 202 217 217 145 159 190 196 233 227 200 215 213 208 207 212 208
329 331 333 327 321 316 316 201 340 309 266 291 223 240 234 182 223 241 183 170 181 186 186 215 207 188 196 202 198 211 211 202 201 163 122 185 240 223 217 218 218 224 223 217 213
327 329 337 333 275 336 289 159 333 261 282 272 240 245 169 175 232 211 191 155 175 204 178 220 212 196 197 208 201 216 217 220 200 182 224 199 258 223 218 213 216 223 222 221 215
325 323 331 332 299 281 89 334 320 218 291 173 183 106 135 207 324 183 181 186 187 167 188 187 186 196 206 206 203 218 182 195 194 197 185 196 240 258 201 221 223 218 220 222 217
321 316 328 315 238 252 300 307 182 218 247 267 199 198 192 220 246 113 174 181 184 189 198 220 167 202 201 208 197 151 111 102 111 195 225 212 214 227 193 220 231 220 217 219 217
319 314 304 258 233 163 303 248 188 223 332 220 181 165 308 250 226 194 181 183 180 192 206 214 234 224 203 199 200 198 178 172 194 201 228 224 216 246 230 235 229 218 213 213 211
320 311 263 205 235 255 266 187 224 205 225 133 272 277 271 359 224 211 182 195 207 189 190 209 219 224 196 210 190 196 201 210 214 212 219 167 218 243 232 256 240 240 223 214 211
319 315 270 243 207 202 215 214 211 206 207 220 264 261 266 242 255 197 212 207 197 196 200 198 223 232 211 183 189 176 216 229 239 80 244 191 240 271 260 251 230 222 207 208 210
319 318 273 348 157 170 211 234 220 216 196 195 237 224 235 252 282 316 196 198 203 202 203 201 220 213 187 214 208 208 171 196 215 231 237 221 241 246 242 252 238 211 212 217 206
307 311 33 167 184 195 229 228 232 241 222 226 238 244 235 248 251 271 271 237 216 199 200 202 215 210 219 221 217 198 203 218 255 238 237 241 240 212 235 244 241 231 222 217 204
339 294 104 211 236 206 230 217 262 244 222 232 230 224 218 230 266 263 248 259 173 147 173 208 212 226 236 218 253 233 220 209 222 198 236 258 230 212 229 246 248 246 239 224 204
307 272 314 236 247 228 282 279 273 245 223 192 211 218 211 229 230 229 232 258 229 225 174 164 203 218 238 239 227 237 225 220 231 243 222 236 237 219 252 246 245 260 245 211 196
292 303 269 262 316 316 346 270 255 287 259 245 237 194 210 231 227 261 247 269 4 226 213 168 196 213 232 235 237 224 242 219 217 228 225 228 241 228 233 237 242 237 245 209 193
238 276 343 313 158 333 278 296 285 275 287 255 198 224 227 242 249 246 254 270 275 274 249 150 220 228 222 226 214 228 229 212 219 228 228 225 218 224 224 222 227 225 230 197 191
285 307 342 292 295 293 251 229 265 316 300 255 238 253 260 228 248 271 255 242 260 240 224 177 170 244 242 235 218 212 225 235 217 219 228 233 216 233 229 230 238 218 196 200 201
216 266 289 274 288 287 263 308 263 351 269 257 306 303 282 279 307 284 266 271 272 284 265 146 91 345 262 230 227 231 219 218 222 207 209 214 213 208 217 227 231 224 195 203 204